Ashtabula, OH

4:55 AM EST on December 10, 2019 (GMT -0500)
Ashtabula County

Weather History for KHZY - September, 2019

Change the Weather History Date:

Wednesday, September 11, 2019

  Actual Average (WUND) Record (WUND)
Temperature  
Mean Temperature 78 °F -  
Max Temperature 90 °F - - (-1)
Min Temperature 68 °F - - (-1)
Cooling Degree Days 14    
Growing Degree Days 28 (Base 50)    
Moisture  
Dew Point 70 °F    
Average Humidity 87    
Maximum Humidity 100    
Minimum Humidity 53    
Precipitation  
Precipitation 0.31 in - - ()
Sea Level Pressure  
Sea Level Pressure 30.11 in    
Wind  
Wind Speed 6 mph (SW)    
Max Wind Speed 20 mph    
Max Gust Speed 29 mph    
Visibility 8 miles    
Events Fog , Rain , Thunderstorm    
Averages and records for this station are not official NWS values.
T = Trace of Precipitation, MM = Missing Value Source: NWS Daily Summary

Daily Weather History Graph

Daily Weather History Graph

Search for Another Location

Airport or City:

Astronomy

Sep. 11, 2019 Rise Set
Actual Time 6:58 AM EDT 7:39 PM EDT
Civil Twilight 6:30 AM EDT 8:07 PM EDT
Nautical Twilight 5:57 AM EDT 8:40 PM EDT
Astronomical Twilight 5:22 AM EDT 9:15 PM EDT
Moon 6:53 PM EDT (9/11) 4:16 AM EDT (9/11)
Length of Visible Light 13h 37m
Length of Day
12h 40m
Waxing Gibbous, 94% of the Moon is Illuminated
Sep 11
Waxing Gibbous
Sep 14
Full
Sep 21
Last Quarter
Sep 28
New
Oct 5
First Quarter

Hourly Weather History & Observations

Time (EDT) Temp. Heat Index Dew Point Humidity Pressure Visibility Wind Dir Wind Speed Gust Speed Precip Events Conditions
12:53 AM 75.0 °F - 66.0 °F 73% 30.12 in 10.0 mi SSW 8.1 mph - N/A   Clear
1:53 AM 73.9 °F - 66.0 °F 76% 30.13 in 10.0 mi SSW 6.9 mph - N/A   Clear
2:53 AM 73.0 °F - 66.0 °F 79% 30.13 in 10.0 mi SSW 5.8 mph - N/A   Clear
3:53 AM 70.0 °F - 66.0 °F 87% 30.14 in 10.0 mi SSW 3.5 mph - N/A   Clear
4:53 AM 70.0 °F - 66.0 °F 87% 30.14 in 10.0 mi Calm Calm - N/A   Clear
5:53 AM 68.0 °F - 66.0 °F 93% 30.14 in 10.0 mi South 3.5 mph - N/A   Clear
6:53 AM 68.0 °F - 66.0 °F 93% 30.17 in 10.0 mi SSW 3.5 mph - N/A   Clear
7:53 AM 68.0 °F - 66.0 °F 93% 30.18 in 10.0 mi South 3.5 mph - N/A   Clear
8:53 AM 72.0 °F - 68.0 °F 87% 30.18 in 10.0 mi Calm Calm - N/A   Clear
10:53 AM 80.1 °F 83.6 °F 71.1 °F 74% 30.17 in 10.0 mi WSW 6.9 mph - N/A   Clear
11:53 AM 84.0 °F 89.6 °F 72.0 °F 67% 30.16 in 10.0 mi WSW 8.1 mph - N/A   Clear
12:53 PM 84.9 °F 90.1 °F 71.1 °F 63% 30.14 in 10.0 mi West 9.2 mph - N/A   Scattered Clouds
1:53 PM 89.1 °F 94.1 °F 70.0 °F 53% 30.12 in 10.0 mi West 12.7 mph 20.7 mph N/A   Partly Cloudy
2:53 PM 88.0 °F 92.1 °F 69.1 °F 53% 30.10 in 10.0 mi WNW 5.8 mph - N/A   Mostly Cloudy
3:53 PM 87.1 °F 92.0 °F 70.0 °F 57% 30.09 in 10.0 mi WNW 9.2 mph - N/A   Clear
4:53 PM 81.0 °F 84.1 °F 69.1 °F 67% 30.09 in 10.0 mi SSW 10.4 mph - N/A   Scattered Clouds
5:09 PM 80.1 °F 82.7 °F 68.0 °F 67% 30.09 in 10.0 mi SSW 8.1 mph - N/A Thunderstorm Mostly Cloudy
5:30 PM 75.9 °F - 71.1 °F 85% 30.09 in 10.0 mi SW 5.8 mph - 0.01 in Rain Light Rain
5:53 PM 75.9 °F - 72.0 °F 87% 30.08 in 10.0 mi Calm Calm - 0.01 in   Clear
6:18 PM 75.9 °F - 72.0 °F 87% 30.09 in 10.0 mi Calm Calm - N/A Thunderstorm Thunderstorm
6:37 PM 73.9 °F - 72.0 °F 93% 30.12 in 1.0 mi SW 19.6 mph 28.8 mph 0.16 in Rain , Thunderstorm Thunderstorms and Rain
6:44 PM 72.0 °F - 70.0 °F 93% 30.11 in 0.5 mi NNW 10.4 mph 28.8 mph 0.23 in Fog , Rain , Thunderstorm Heavy Thunderstorms and Rain
6:48 PM 71.6 °F - 69.8 °F 94% 30.10 in 1.2 mi NNW 6.9 mph - 0.27 in Rain , Thunderstorm Heavy Thunderstorms and Rain
6:53 PM 71.1 °F - 70.0 °F 96% 30.08 in 2.0 mi North 6.9 mph - 0.29 in Rain , Thunderstorm Thunderstorms and Rain
7:02 PM 71.1 °F - 71.1 °F 100% 30.10 in 8.0 mi North 3.5 mph - 0.00 in Rain , Thunderstorm Light Thunderstorms and Rain
7:21 PM 71.1 °F - 71.1 °F 100% 30.09 in 7.0 mi SE 3.5 mph - 0.00 in Rain , Thunderstorm Light Rain
7:33 PM 71.1 °F - 71.1 °F 100% 30.09 in 10.0 mi South 3.5 mph - 0.00 in   Mostly Cloudy
7:53 PM 71.1 °F - 71.1 °F 100% 30.07 in 8.0 mi Calm Calm - 0.00 in   Clear
8:53 PM 72.0 °F - 72.0 °F 100% 30.09 in 10.0 mi SE 3.5 mph - N/A   Mostly Cloudy
9:00 PM 71.1 °F - 71.1 °F 100% 30.10 in 9.0 mi Calm Calm - N/A Thunderstorm Mostly Cloudy
9:43 PM 71.1 °F - 71.1 °F 100% 30.11 in 8.0 mi ENE 4.6 mph - 0.01 in Rain , Thunderstorm Light Rain
9:53 PM 71.1 °F - 71.1 °F 100% 30.10 in 9.0 mi North 3.5 mph - 0.01 in Rain , Thunderstorm Light Rain
10:00 PM 72.0 °F - 72.0 °F 100% 30.12 in 9.0 mi Calm Calm - 0.00 in Rain , Thunderstorm Light Rain
10:24 PM 72.0 °F - 71.1 °F 97% 30.11 in 10.0 mi SSE 3.5 mph - 0.00 in   Overcast
10:46 PM 72.0 °F - 71.1 °F 97% 30.11 in 8.0 mi Calm Calm - 0.00 in   Overcast
10:53 PM 71.1 °F - 71.1 °F 100% 30.09 in 7.0 mi Calm Calm - 0.00 in   Mostly Cloudy
11:16 PM 71.1 °F - 71.1 °F 100% 30.10 in 6.0 mi SSE 5.8 mph - N/A   Scattered Clouds
11:53 PM 70.0 °F - 70.0 °F 100% 30.07 in 6.0 mi SSE 4.6 mph - N/A   Clear